www.pogodaiklimat.ru

Погода и климат >> Архив погоды >> Индонезия >> Калиянджет


ПОГОДА в Калиянджете

  • Прогноз погоды в Калиянджете
  • Монитор погоды в Калиянджете

АРХИВ ПОГОДЫ в Калиянджете

Время (UTC), дата Ветер
(напр.,м/с)
 
Видим.   Явления Облачность Т
(С)
Тd
(С)
f
(%)
Тe
(С)
Тes
(С)
Комфортность P
(гПа)
Po
(гПа)
Тmin
(С)
Tmax
(С)
R
(мм)
R24
(мм)
S
(см)
18 11.09 В 3 8000 м 1/1 600 м
[Cu hum Ci fib]
+24.6 +17.1 63 +28 +28 душно 1013.9 1013.6
21 11.09 В 2 8000 м 1/1 600 м
[Cu hum Ci fib]
+23.4 +17.7 70 +29 +29 душно 1014.3 1014.0
00 12.09 ЮВ 5 12 км 3/1 600 м
[Cu hum Ac trans Ci fib]
+26.2 +17.9 60 +31 +32 очень
душно
1016.2 1015.8 +23.4
03 12.09 ЮВ 5 12 км 3/1 600 м
[Cu hum Ac trans Ci fib]
+27.2 +20.6 67 +34 +42 очень
душно
1015.7 1015.4
06 12.09 СВ 4 12 км 4/3 600 м
[Cu med, cong Ac trans Ci fib]
+30.4 +19.1 51 +36 +44 очень
душно
1013.1 1012.8
09 12.09 ЮВ 5 12 км 4/3 600 м
[Cu hum Ac trans Ci fib]
+29.4 +19.3 55 +35 +36 очень
душно
1012.1 1011.8
12 12.09 ЮВ 4 8000 м 4/3 600 м
[Cu hum Ac trans Ci fib]
+26.4 +19.4 65 +32 +32 очень
душно
1013.9 1013.6 +31.4
15 12.09 ЮВ 4 8000 м 4/3 600 м
[Cu hum Ac trans Ci fib]
+25.8 +20.6 73 +32 +32 очень
душно
1014.9 1014.6
18 12.09 ЮВ 5 8000 м 3/1 600 м
[Cu hum Ci fib]
+25.6 +20.4 73 +32 +32 очень
душно
1013.7 1013.4
21 12.09 ЮВ 4 8000 м 1/1 600 м
[Cu hum Ci fib]
+25.2 +20.6 76 +31 +31 очень
душно
1013.8 1013.5
00 13.09 Ю 5 12 км 1/1 600 м
[Cu hum Ci fib]
+26.2 +20.2 70 +32 +34 очень
душно
1015.2 1014.2 +23.4
03 13.09 Ю 8 12 км 1/1 600 м
[Cu hum Ci fib]
+28.4 +21.0 64 +36 +39 очень
душно
1014.8 1014.5
06 13.09 ЮВ 4 12 км 4/3 600 м
[Cu med, cong Ac trans Ci fib]
+30.0 +21.6 61 +38 +46 очень
душно
1012.2 1011.9
09 13.09 В 4 12 км 1/1 600 м
[Cu med, cong Ci fib]
+29.8 +21.7 62 +38 +40 очень
душно
1011.7 1011.4
12 13.09 В 2 8000 м 1/1 600 м
[Cu med, cong Ac trans Ci fib]
+26.6 +21.2 72 +34 +34 очень
душно
1013.6 1013.3 +31.0
15 13.09 ЮВ 4 8000 м 3/1 600 м
[Cu med, cong Ac trans Ci fib]
+26.0 +21.8 78 +33 +33 очень
душно
1014.6 1014.3
18 13.09 В 2 8000 м 4/3 600 м
[Cu med, cong Ac trans Ci fib]
+25.0 +21.9 83 +32 +32 очень
душно
1013.3 1013.0
21 13.09 ЮВ 2 8000 м 4/3 600 м
[Cu med, cong Ac trans Ci fib]
+24.6 +21.5 83 +31 +31 очень
душно
1013.2 1012.9
00 14.09 Ю 6 12 км 6/5 600 м
[Cu med, cong Ac trans Ci fib]
+26.7 +22.5 78 +35 +36 очень
душно
1014.8 1014.5 +23.4
03 14.09 ЮВ 5 12 км 4/3 600 м
[Cu med, cong Ac trans Ci fib]
+27.9 +21.6 69 +36 +43 очень
душно
1014.7 1014.4
06 14.09 В 3 12 км 6/4 600 м
[Cu med, cong Ac trans Ci fib]
+31.6 +23.1 61 +42 +49 опасность
перегрева
1012.3 1012.0
09 14.09 ЮВ 5 12 км 4/1 600 м
[Cu hum Ac trans Ci fib]
+29.4 +23.1 69 +39 +41 очень
душно
1011.6 1011.3
12 14.09 В 2 12 км 5/3 600 м
[Cu med, cong Ac trans Ci fib]
+27.0 +21.9 74 +35 +35 очень
душно
1013.1 1012.7 +31.4
15 14.09 ЮВ 2 8000 м 8/4 600 м
[Cu med, cong Ac trans Ci fib]
+26.2 +22.6 81 +35 +35 очень
душно
1013.2 1012.9
18 14.09 ЮВ 3 8000 м 5/3 600 м
[Cu med, cong Ac trans Ci fib]
+25.4 +22.3 83 +33 +33 очень
душно
1011.5 1011.2
21 14.09 ЮВ 3 8000 м 5/3 600 м
[Cu med, cong Ac trans Ci fib]
+25.3 +21.8 81 +33 +33 очень
душно
1011.8 1011.5
00 15.09 ЮВ 6 12 км 6/4 600 м
[Cu med, cong Ac trans Ci fib]
+26.8 +22.6 78 +35 +36 очень
душно
1013.6 1013.3 +25.2
03 15.09 ЮВ 6 12 км 8/5 600 м
[Cu med, cong Ac trans Ci fib]
+28.2 +22.3 70 +37 +39 очень
душно
1013.3 1013.0
06 15.09 В 8 12 км 6/4 600 м
[Cu med, cong Ac trans Ci fib]
+29.8 +22.3 64 +39 +41 очень
душно
1010.7 1010.4
09 15.09 ЮВ 4 12 км 3/3 600 м
[Cu med, cong Ci fib]
+29.2 +22.8 68 +39 +40 очень
душно
1009.9 1009.6
12 15.09 В 3 8000 м 1/1 600 м
[Cu med, cong Ac trans Ci fib]
+26.8 +22.0 75 +35 +35 очень
душно
1011.4 1011.1 +31.6
15 15.09 В 4 8000 м 1/1 600 м
[Cu med, cong Ac trans Ci fib]
+26.0 +22.7 82 +34 +34 очень
душно
1012.6 1012.3
18 15.09 ЮВ 2 8000 м 3/3 600 м
[Cu med, cong Ci fib]
+25.2 +22.4 84 +33 +33 очень
душно
1011.2 1010.9
21 15.09 В 4 8000 м 3/3 600 м
[Cu med, cong Ci fib]
+25.5 +22.0 81 +33 +33 очень
душно
1011.4 1011.1
00 16.09 ЮВ 8 12 км 5/4 600 м
[Cu med, cong Ac trans Ci fib]
+27.2 +22.8 77 +36 +37 очень
душно
1012.8 1012.5 +25.2
03 16.09 В 6 12 км 4/3 600 м
[Cu med, cong Ac trans Ci fib]
+30.8 +22.8 62 +40 +45 очень
душно
1012.5 1012.2
06 16.09 ЮВ 7 12 км 5/4 600 м
[Cu med, cong Ac trans Ci fib]
+29.8 +22.3 64 +39 +42 очень
душно
1010.4 1010.1
09 16.09 ЮВ 5 12 км 4/3 600 м
[Cu med, cong Ac trans Ci fib]
+29.2 +22.2 66 +38 +39 очень
душно
1009.9 1009.6
12 16.09 ЮВ 4 8000 м 1/1 600 м
[Cu hum Ci fib]
+26.8 +22.3 76 +35 +35 очень
душно
1011.5 1011.2 +31.7
15 16.09 ЮВ 5 8000 м 4/3 600 м
[Cu med, cong Ac trans Ci fib]
+26.4 +22.2 78 +34 +34 очень
душно
1012.4 1012.1
18 16.09 ЮВ 4 8000 м 6/5 600 м
[Cu med, cong Ac trans Ci fib]
+26.4 +22.5 79 +35 +35 очень
душно
1012.3 1012.0
21 16.09 В 2 8000 м 5/4 600 м
[Cu med, cong Ac trans Ci fib]
+26.1 +22.9 83 +35 +35 очень
душно
1012.2 1011.8
00 17.09 В 5 12 км 5/4 600 м
[Cu med, cong Ac trans Ci fib]
+27.0 +22.8 78 +36 +37 очень
душно
1013.5 1013.2 +26.0
03 17.09 В 5 12 км 5/4 600 м
[Cu med, cong Ac trans Ci fib]
+31.0 +23.0 62 +41 +46 опасность
перегрева
1013.3 1013.0
06 17.09 В 5 12 км 8/4 600 м
[Cu med, cong Ac trans Ci fib]
+31.0 +23.0 62 +41 +45 опасность
перегрева
1011.2 1010.9
09 17.09 В 5 12 км 9/3 600 м
[Cu med, cong Ac trans Ci fib]
+29.4 +23.7 71 +40 +41 очень
душно
1010.9 1010.6
12 17.09 В 4 8000 м 1/1 600 м
[Cu hum Ci fib]
+27.0 +22.5 76 +35 +35 очень
душно
1013.0 1012.7 +32.0
15 17.09 В 3 8000 м 3/1 600 м
[Cu hum Ac trans Ci fib]
+26.2 +23.2 84 +35 +35 очень
душно
1014.0 1013.7
18 17.09 В 2 8000 м 5/3 600 м
[Cu med, cong Ac trans Ci fib]
+26.4 +22.8 81 +35 +35 очень
душно
1013.4 1013.1
21 17.09 В 4 8000 м 3/1 600 м
[Cu med, cong Ac trans Ci fib]
+25.8 +22.4 82 +34 +34 очень
душно
1013.3 1013.0
00 18.09 В 6 10 км 3/3 600 м
[Cu med, cong Ac trans Ci fib]
+27.4 +23.0 77 +37 +38 очень
душно
1014.4 1014.1 +25.8
03 18.09 В 8 12 км 1/1 600 м
[Cu med, cong Ac trans Ci fib]
+30.6 +22.6 62 +40 +43 очень
душно
1014.1 1013.8
06 18.09 В 10 12 км 1/1 600 м
[Cu med, cong Ci fib]
+32.2 +21.9 55 +41 +42 опасность
перегрева
1011.7 1011.4
09 18.09 В 5 12 км 1/1 600 м
[Cu hum Ci fib]
+30.6 +21.3 58 +39 +40 очень
душно
1011.0 1010.7
12 18.09 В 5 8000 м 1/1 600 м
[Cu hum Ci fib]
+27.8 +21.3 68 +35 +35 очень
душно
1012.9 1012.6 +32.4
15 18.09 В 4 8000 м 1/1 600 м
[Cu hum Ci fib]
+27.0 +22.5 76 +35 +35 очень
душно
1013.8 1013.5

 

Местоположение метеостанции Калиянджет (Индонезия): широта -7.05 долгота 113.96 высота над уровнем моря 3 м.

В архиве по умолчанию представлена погода в Калиянджете за последнюю неделю. Архивные данные за месяц целиком и за предыдущие месяцы, начиная с января 2011 года, Вы можете получить, выбрав интересующий диапазон дат из раскрывающегося списка и нажав кнопку "Ввод!".


*Определитесь, кто Вы:
робот инопланетянин человек

Внимание! Время в таблицах - всемирное. Для получения местного времени необходимо прибавить поправку, которая равна 7 ч.

Смотрите также архив погоды в соседних городах и на ближайших метеорологических станциях:

Погода в Сурабая Геданган (Индонезия) (33 км)
Погода в Аэропорту Джуанда (Индонезия) (137 км)
Погода в Банюванги (Индонезия) (138 км)
Погода в Сурабая Перак (Индонезия) (139 км)
Погода в Сангкапуре (Индонезия) (199 км)
Погода в Денпасаре (Индонезия) (231 км)
Погода в Матараме (Индонезия) (284 км)
Погода в Семаранге (Индонезия) (392 км)
Погода в Аэропорту Ахмад Яни (Индонезия) (395 км)
Погода в Банджармасине (Индонезия) (412 км)

Пояснения к столбцам:

Ветер - указаны скорость ветра в м/с - средняя за 10 мин, порывы в срок и между сроками (в фигурных скобках) и направление, откуда дует ветер: С - северный, СВ - северо-восточный, В - восточный, ЮВ - юго-восточный, Ю - южный, ЮЗ - юго-западный, З - западный, СЗ - северо-западный.
Видимость - горизонтальная дальность видимости в метрах или километрах. При видимости от 1 до 10 км при отсутствии осадков обычно наблюдается дымка, при ухудшении видимости до 1 км и менее - туман. В сухую погоду видимость может ухудшаться дымом, пылью или мглою.
Явления - указаны атмосферные явления, наблюдавшиеся в срок или в последний час перед сроком; фигурными скобками обозначены явления, наблюдавшиеся между сроками (за 1-3 часа до срока); квадратными скобками обозначены град или гололедные отложения с указанием их диаметра в мм.
Облачность - указаны через наклонную черту общая и нижняя облачность в баллах и высота нижней границы облаков в метрах; квадратными скобками обозначены формы облаков: Ci - перистые, Cs - перисто-слоистые, Cc - перисто-кучевые, Ac - высококучевые, As - высокослоистые, Sc - слоисто-кучевые, Ns - слоисто-дождевые, Cu - кучевые, Cb - кучево-дождевые. Подробнее классификацию облаков см. в Атласе облаков (PDF).
T - Температура воздуха - температура, измеренная на высоте 2 м над землей.
Td - Температура точки росы - температура, при понижении до которой содержащийся в воздухе водяной пар достигнет насыщения.
f - Относительная влажность воздуха - влажноcть воздуха, измеренная на высоте 2 м над землей.
Te - Эффективная температура - температура, которую ощущает одетый по сезону человек в тени. Характеристика душности погоды. При расчете учитывается влияние влажности воздуха и скорости ветра на теплоощущения человека.
Tes - Эффективная температура на солнце - температура, которую ощущает человек, с поправкой на солнечный нагрев. Характеристика знойности погоды. Зависит от высоты солнца над горизонтом, облачности и скорости ветра. Ночью, в пасмурную погоду, а также при ветре 12 м/с и более поправка равна нулю.
P - Атмосферное давление - приведенное к уровню моря атмосферное давление.
Po - Атмосферное давление - измеренное на уровне метеостанции атмосферное давление.
Tmin - Минимальная температура - минимум температуры воздуха на высоте 2 м над землей.
Tmax - Максимальная температура - максимум температуры воздуха на высоте 2 м над землей.
R - Количество осадков - Количество выпавших осадков за период времени, мм. При наведении курсора мыши на число - период времени, за который выпало указанное количество осадков.
R24 - Количество осадков - Количество выпавших осадков за 24 часа, мм.
S - Снежный покров - Высота снежного покрова, см. При наведении курсора мыши на число - состояние снежного покрова и степень покрытия местности в баллах.